Temperature
19 19 18 17 17 16 16 16 15 15 15 15 14 14 14 13 13 13 13 12 12 12 11 11 11 11 11 10 10 10 10 10 10 10 10 11 11 11 11 11 11 12 12
19 19 18 18 17 17 17 16 16 16 16 15 15 14 14 14 13 13 13 13 12 12 12 11 11 11 11 11 10 10 10 10 10 10 10 10 10 11 11 11 11 11 11
20 19 19 18 18 18 17 17 17 16 16 16 15 15 15 14 14 13 13 13 13 12 12 12 11 11 11 11 10 10 10 10 10 10 10 10 10 10 10 10 11 11 11
20 20 19 19 19 18 18 17 17 17 16 16 16 15 15 15 14 14 13 13 13 13 12 12 12 11 11 11 10 10 10 10 10 10 10 10 10 10 10 10 10 10 10
20 20 20 19 19 18 18 18 17 17 17 16 16 16 15 15 15 14 14 13 13 13 12 12 12 11 11 11 11 10 10 10 10 10 10 9 10 10 10 9 9 10 10
21 20 20 20 19 19 18 18 18 17 17 17 16 16 16 16 15 15 14 14 13 13 13 12 12 12 11 11 11 10 10 10 10 10 9 9 10 10 9 9 9 9 9
21 20 20 20 19 19 18 18 18 17 17 17 16 16 16 16 15 15 14 14 14 13 13 13 12 12 11 11 11 11 10 10 10 9 9 9 9 9 9 9 9 9 9
20 20 20 19 19 19 18 18 18 17 17 17 16 16 16 16 15 15 14 14 14 14 13 13 12 12 12 11 11 11 11 10 10 9 9 9 9 9 9 9 8 8 9
19 19 19 19 18 18 18 18 18 17 17 17 16 16 16 16 15 15 14 13 13 14 13 13 12 12 12 11 11 11 11 11 10 10 9 9 9 9 9 8 8 8 8
18 18 18 17 17 17 17 17 17 16 16 16 16 16 15 15 15 14 14 13 13 13 13 13 13 12 12 11 11 11 11 11 10 10 9 9 9 9 9 8 8 8 8
16 16 16 16 16 16 16 16 15 15 15 15 15 15 15 14 14 14 13 13 13 13 13 13 13 13 12 12 11 11 11 10 10 10 9 9 9 9 9 9 8 8 8
15 15 15 15 14 14 14 14 14 14 14 13 13 14 14 14 13 13 13 13 13 12 12 13 13 12 12 12 11 11 11 10 10 9 9 9 9 9 9 9 8 8 8
13 13 13 13 13 13 13 13 13 13 12 12 12 12 12 12 12 12 12 12 12 12 12 12 12 12 12 11 11 11 10 10 10 9 9 9 9 9 9 9 8 8 8
12 12 12 12 12 12 12 11 11 11 11 11 11 11 11 11 11 11 11 11 11 11 11 11 11 11 11 11 11 11 10 10 10 9 9 9 9 9 9 9 8 8 8
11 11 11 11 11 10 10 10 10 10 10 10 10 10 10 10 10 10 10 10 10 11 10 11 11 11 11 11 11 11 10 10 10 9 9 9 9 9 9 8 8 8 8
10 10 10 10 10 10 10 10 10 9 9 9 9 9 9 9 9 9 10 10 10 10 10 10 10 10 11 11 11 10 10 10 10 9 9 9 9 9 9 8 8 8 8
10 10 9 9 9 9 9 9 8 9 9 9 9 8 8 8 8 8 9 9 9 9 9 10 10 10 10 10 10 10 10 10 10 9 9 9 9 9 8 8 8 8 8
9 9 9 9 8 8 8 8 7 7 7 8 8 8 8 8 8 8 8 8 8 9 9 9 9 10 10 10 10 10 10 9 9 9 9 9 8 8 8 8 8 8 8
9 9 9 8 8 8 7 7 7 7 6 6 6 7 7 7 7 7 7 7 7 8 8 8 9 9 9 9 9 9 9 9 9 9 8 8 8 8 8 8 8 8 7
9 8 8 8 7 7 7 6 6 5 5 5 5 5 6 6 6 6 7 7 7 7 7 8 8 8 8 8 8 8 9 9 8 8 8 8 8 8 8 8 8 7 7
8 8 7 7 6 6 5 5 5 4 4 4 4 5 5 5 5 5 5 6 6 6 7 7 7 8 8 8 8 8 8 8 8 8 8 8 8 8 8 7 7 7 7
7 7 6 6 5 5 4 4 4 4 4 4 4 4 4 4 5 5 5 5 6 6 6 7 7 7 7 8 8 8 8 8 8 7 7 7 7 7 7 7 7 7 7
6 6 5 5 4 4 3 3 3 3 3 3 3 3 4 4 4 4 5 5 5 6 6 6 7 7 7 7 7 7 7 7 7 7 7 7 7 7 7 7 7 7 7
5 5 4 4 3 3 3 3 3 2 2 2 3 3 3 3 4 4 4 4 5 5 6 6 6 6 7 7 7 7 7 7 7 7 7 7 7 7 7 7 7 7 7
4 3 3 2 2 2 2 2 2 2 2 2 2 2 3 3 3 3 4 4 4 5 5 5 6 6 6 6 7 7 7 7 7 7 7 6 6 6 6 6 6 6 6
3 2 2 2 2 1 1 1 1 1 1 2 2 2 2 3 3 3 3 4 4 4 5 5 5 6 6 6 6 6 6 6 6 6 6 6 6 6 6 6 6 6 6
Wind_Speed
10 10 10 9 9 8 8 8 8 7 7 7 7 7 7 6 6 5 6 5 6 5 5 5 6 5 4 4 4 4 5 5 6 6 4 4 4 6 7 8 8 8 8
11 10 11 9 9 9 9 9 8 8 8 8 7 7 7 7 7 7 7 7 7 7 7 6 7 6 6 5 5 6 6 7 6 8 5 4 5 5 6 6 7 7 7
10 11 10 10 10 11 11 10 9 9 9 8 8 9 9 8 8 8 8 8 8 8 8 8 9 7 8 6 7 7 6 6 7 7 7 4 4 4 4 5 5 5 7
11 11 12 13 13 12 11 10 10 10 10 10 10 10 10 9 9 9 9 9 9 9 9 9 9 9 10 9 8 8 7 7 7 7 7 6 6 5 4 5 5 4 5
11 12 13 12 10 10 10 10 10 10 11 10 10 10 10 9 9 10 10 10 10 10 10 10 10 12 13 11 8 8 8 7 7 7 8 6 6 5 5 4 5 6 5
11 13 11 9 9 10 10 10 10 10 10 10 11 11 11 10 13 15 12 10 10 11 11 11 10 12 14 15 15 14 12 10 10 8 8 9 10 8 7 6 5 4 5
10 9 8 9 10 11 11 10 11 11 10 11 11 11 13 14 16 16 16 12 11 11 12 11 10 11 12 11 12 14 14 16 15 12 12 12 11 9 7 7 7 7 7
6 6 6 7 9 8 8 10 11 9 9 11 12 12 12 14 16 17 17 14 12 13 13 13 13 13 12 12 12 12 12 12 13 13 13 13 13 11 10 9 8 7 8
3 4 5 6 7 7 9 11 9 8 10 10 9 12 13 14 16 18 16 10 11 14 14 14 14 14 15 15 13 13 13 12 13 16 17 16 16 15 10 6 6 6 8
3 2 1 2 5 7 8 8 6 7 9 9 10 11 12 14 15 17 16 10 12 13 12 13 16 17 17 16 14 13 14 14 11 9 10 12 12 12 13 11 10 10 9
4 4 4 3 2 3 4 4 5 6 6 8 10 10 11 13 15 16 16 12 13 13 12 12 12 17 20 19 17 14 17 14 10 9 9 9 8 8 9 10 11 11 11
6 6 6 5 4 4 3 3 3 4 5 7 8 9 9 10 13 15 17 18 17 14 14 13 13 17 19 19 16 16 18 14 9 8 8 9 10 10 9 10 11 13 14
7 7 6 6 5 4 4 4 3 3 4 6 6 8 9 7 9 15 17 18 19 16 14 17 17 17 16 15 17 18 14 11 10 10 11 12 11 11 9 7 8 10 12
6 6 5 5 6 5 4 3 3 4 4 5 6 8 9 8 8 8 8 10 13 14 14 15 18 17 15 13 12 12 11 11 11 12 12 11 10 8 9 8 7 7 7
5 5 5 5 5 5 5 4 5 5 6 6 7 8 9 10 11 13 11 10 9 10 9 8 8 9 10 10 10 10 10 10 11 11 11 11 10 9 9 8 7 7 7
4 5 4 5 5 5 6 7 8 8 12 13 13 12 10 14 17 18 18 17 17 14 8 9 11 11 12 12 12 11 10 11 11 11 11 11 10 10 9 8 8 8 9
3 4 4 5 6 6 6 7 9 10 11 13 15 15 15 16 18 18 18 17 16 11 9 11 12 12 12 11 11 11 11 11 10 10 11 11 10 10 9 9 9 9 10
4 6 6 5 6 7 7 8 8 10 11 11 12 15 17 17 18 18 16 11 9 8 9 11 12 11 11 11 11 11 11 10 9 10 10 10 10 10 10 10 9 10 10
5 5 6 6 7 7 8 9 9 11 11 12 12 13 15 16 16 15 11 8 10 10 11 11 11 11 10 10 10 10 10 10 9 9 10 10 10 10 10 10 10 12 11
5 9 9 7 8 8 9 9 10 11 11 12 12 13 13 12 12 12 9 9 10 11 11 11 11 11 10 9 9 9 9 10 10 10 10 9 9 9 11 12 11 10 10
6 8 11 9 8 9 9 10 11 11 12 12 13 14 16 13 13 14 12 11 11 11 11 10 10 10 9 9 9 10 11 9 9 9 9 9 9 9 9 10 10 10 10
5 6 7 8 8 9 10 10 11 11 13 14 13 14 16 12 12 12 12 12 11 10 10 9 9 8 7 8 8 9 9 9 8 8 8 8 8 9 9 9 9 10 10
6 7 8 8 9 10 11 10 11 12 12 13 13 13 12 11 11 11 12 11 10 9 8 6 7 6 6 6 6 6 7 7 7 7 8 7 7 7 8 9 11 11 11
6 7 8 9 9 9 10 11 11 12 12 13 13 12 12 12 11 12 12 10 8 7 6 5 4 5 5 4 3 4 4 5 5 5 7 7 8 8 8 9 10 11 11
6 7 8 9 9 10 10 11 11 12 12 12 12 12 12 12 12 11 11 10 9 8 8 6 4 4 5 5 4 3 3 3 4 4 5 6 8 9 9 10 9 10 11
7 8 8 8 9 9 10 10 11 12 12 12 11 12 12 11 11 11 10 10 9 8 8 7 7 7 6 5 5 5 4 3 4 5 5 6 7 8 9 8 10 10 11
Wind_Direction
199 199 199 200 197 191 194 202 202 202 200 203 206 209 214 218 213 210 224 227 230 241 238 232 241 235 233 228 216 215 218 216 248 270 255 268 277 285 299 305 302 299 299
201 196 201 198 191 195 205 208 203 205 207 209 210 213 220 223 218 217 229 230 229 240 244 239 246 242 236 235 226 226 227 221 235 268 273 266 261 272 280 289 294 295 292
193 195 198 199 198 205 210 209 205 209 212 212 211 217 223 224 224 225 228 234 235 238 241 240 246 241 244 240 233 236 238 235 228 249 269 262 265 270 279 282 283 286 292
190 195 203 207 207 210 210 208 209 210 213 215 216 221 225 227 228 230 231 237 242 244 242 241 243 239 241 243 241 239 239 240 237 245 262 266 264 265 259 270 282 278 287
191 201 212 212 207 207 209 212 213 213 219 218 220 226 228 229 232 230 232 237 242 248 249 245 244 242 240 238 238 239 235 240 243 248 259 265 265 261 257 253 268 281 281
198 211 213 204 204 210 215 215 216 220 221 220 223 227 230 234 231 226 225 235 238 243 250 251 249 251 249 245 242 239 230 235 243 247 256 258 262 260 257 251 256 268 279
207 216 212 207 212 216 217 216 221 224 222 224 229 230 235 237 232 232 230 231 237 241 244 249 253 250 241 247 250 250 245 237 232 238 250 254 258 254 249 253 244 242 252
216 227 222 215 224 224 219 225 228 224 222 229 232 232 237 243 235 235 235 236 240 242 241 242 246 251 246 239 247 252 252 249 241 239 242 249 250 250 242 249 257 257 258
227 239 232 222 229 227 228 235 231 224 229 229 231 231 235 244 237 234 233 238 242 246 244 241 240 247 245 233 238 248 256 259 250 240 237 242 245 244 237 239 240 244 263
351 335 312 236 233 239 243 245 238 231 239 240 242 239 238 246 243 234 228 234 243 249 248 243 236 237 241 230 231 238 248 255 254 250 242 244 247 249 236 229 236 245 257
26 38 37 26 307 269 264 256 252 249 253 253 254 253 248 249 253 243 230 229 239 246 249 249 243 230 233 232 226 231 238 242 246 245 249 253 253 250 246 235 229 233 243
47 46 37 28 18 6 339 310 285 268 270 271 271 273 266 257 252 252 239 230 233 242 248 250 246 232 228 229 227 230 233 234 241 242 246 252 253 253 250 244 236 234 238
45 37 24 14 9 1 353 337 329 311 287 285 284 284 285 277 265 255 254 248 240 241 249 247 244 238 232 234 233 228 227 228 227 235 244 250 251 252 252 249 246 241 244
38 21 12 7 355 350 345 331 321 311 303 300 297 293 292 288 282 277 270 267 258 252 254 252 247 245 239 237 237 233 228 224 223 234 243 249 250 247 246 243 248 244 248
27 11 0 354 345 339 334 316 305 284 275 281 285 284 290 292 285 281 282 281 273 266 265 259 249 241 238 235 234 234 229 224 227 233 238 244 245 244 246 239 237 235 237
11 351 341 334 329 326 322 318 299 286 291 286 272 271 277 272 279 283 281 275 271 266 254 252 248 241 238 236 233 232 229 227 227 228 230 234 238 240 244 239 230 232 241
342 326 322 322 320 317 316 314 313 312 302 294 289 286 279 282 283 284 283 280 275 257 241 246 245 241 237 234 232 232 233 229 222 221 226 229 231 234 238 239 235 234 241
329 322 319 310 310 310 309 307 304 305 309 308 302 295 292 290 288 286 286 287 278 250 244 247 246 243 240 237 234 233 235 232 223 222 225 227 226 228 233 236 236 237 241
327 320 315 312 311 309 307 306 305 303 302 302 304 303 299 299 294 289 284 272 271 267 257 253 251 247 244 241 238 235 234 231 226 221 224 225 224 224 230 235 237 237 239
326 325 328 319 317 316 315 314 312 309 307 307 306 306 309 308 306 303 292 279 273 270 265 258 253 248 243 242 240 236 233 231 227 224 226 226 224 223 229 233 235 237 238
325 325 328 324 318 317 317 315 313 310 308 307 305 304 302 302 299 297 295 288 281 277 273 265 256 249 242 238 235 232 231 229 226 226 228 228 225 225 229 234 237 239 242
324 322 323 320 320 319 317 314 312 310 310 310 310 309 304 301 299 296 294 293 291 283 275 268 263 255 246 237 231 228 229 229 229 229 230 231 229 229 232 234 238 240 242
330 329 327 325 323 319 319 319 318 316 314 314 314 316 315 311 306 305 304 301 298 295 288 275 266 262 256 243 233 228 230 234 234 230 230 234 234 234 235 236 240 243 241
338 334 331 329 328 327 324 322 322 321 321 321 320 320 320 320 319 317 317 315 313 311 311 304 292 288 287 275 249 236 235 236 238 236 236 238 240 242 241 241 242 242 244
342 338 334 332 329 327 325 324 323 323 322 322 322 323 323 323 323 323 324 325 325 326 327 326 325 324 321 320 312 292 259 247 249 249 244 242 244 244 245 246 245 247 245
345 340 335 332 330 328 327 326 324 324 324 325 325 325 327 328 329 331 332 333 336 337 336 336 338 339 334 330 328 328 314 288 268 253 244 243 245 246 246 245 248 246 250
Height
1528 1530 1532 1533 1534 1535 1536 1536 1537 1537 1538 1538 1539 1539 1540 1540 1540 1540 1540 1539 1539 1539 1539 1538 1538 1538 1538 1538 1537 1537 1536 1535 1533 1532 1532 1532 1531 1531 1530 1530 1529 1529 1529
1524 1526 1528 1530 1531 1531 1532 1533 1534 1534 1535 1536 1536 1536 1537 1537 1537 1537 1536 1536 1536 1535 1535 1535 1534 1534 1534 1534 1533 1533 1532 1531 1530 1528 1527 1527 1527 1526 1525 1525 1524 1524 1524
1520 1522 1524 1525 1526 1527 1528 1530 1530 1531 1532 1532 1533 1533 1533 1533 1533 1533 1533 1533 1532 1531 1531 1531 1530 1530 1529 1529 1529 1528 1527 1527 1525 1524 1522 1522 1521 1521 1520 1520 1519 1518 1518
1515 1517 1519 1520 1522 1523 1525 1526 1527 1528 1528 1529 1529 1529 1530 1530 1529 1529 1529 1528 1528 1527 1527 1526 1526 1525 1525 1524 1524 1523 1522 1521 1520 1519 1517 1516 1516 1516 1515 1514 1513 1513 1512
1511 1512 1514 1516 1518 1520 1521 1522 1523 1524 1524 1525 1525 1525 1525 1525 1525 1525 1524 1523 1523 1522 1522 1521 1520 1520 1519 1519 1518 1517 1517 1515 1515 1513 1512 1511 1510 1510 1510 1509 1508 1507 1506
1506 1508 1510 1512 1513 1515 1516 1518 1519 1519 1520 1520 1520 1520 1520 1520 1520 1520 1519 1518 1517 1516 1516 1515 1515 1514 1513 1513 1512 1511 1510 1509 1508 1508 1506 1505 1505 1505 1505 1504 1502 1501 1500
1501 1503 1505 1507 1508 1510 1512 1513 1513 1514 1515 1514 1515 1515 1514 1514 1514 1514 1513 1512 1511 1510 1509 1509 1508 1507 1507 1506 1505 1504 1504 1503 1502 1501 1500 1499 1499 1499 1499 1498 1497 1495 1494
1496 1498 1500 1502 1503 1505 1506 1507 1508 1508 1509 1508 1508 1508 1508 1508 1508 1508 1507 1506 1504 1503 1502 1501 1501 1500 1500 1499 1498 1497 1496 1496 1495 1495 1493 1493 1493 1493 1492 1492 1490 1489 1487
1492 1493 1494 1496 1497 1498 1499 1500 1501 1501 1501 1501 1501 1501 1500 1500 1500 1500 1500 1498 1496 1495 1494 1494 1493 1492 1492 1492 1491 1489 1488 1488 1489 1488 1487 1487 1486 1486 1486 1485 1483 1482 1480
1488 1489 1490 1491 1491 1492 1493 1493 1494 1494 1493 1493 1493 1493 1492 1491 1492 1491 1491 1489 1487 1486 1485 1485 1484 1484 1484 1484 1483 1482 1480 1481 1481 1481 1480 1480 1479 1479 1479 1478 1477 1476 1474
1486 1486 1486 1486 1486 1486 1486 1486 1486 1485 1485 1484 1484 1484 1483 1482 1482 1482 1481 1480 1478 1477 1476 1475 1475 1475 1475 1475 1474 1473 1473 1474 1474 1473 1472 1472 1471 1471 1471 1470 1469 1468 1467
1485 1484 1483 1483 1482 1482 1481 1480 1479 1478 1477 1476 1475 1474 1474 1473 1473 1472 1472 1470 1469 1467 1465 1465 1465 1466 1465 1466 1465 1464 1465 1466 1465 1464 1463 1463 1463 1462 1462 1462 1461 1460 1459
1483 1482 1481 1481 1480 1478 1477 1475 1474 1472 1471 1469 1467 1465 1464 1464 1463 1462 1461 1460 1459 1457 1455 1455 1455 1455 1455 1455 1455 1456 1456 1456 1455 1454 1454 1453 1454 1454 1454 1453 1453 1452 1451
1483 1481 1480 1479 1477 1476 1474 1472 1470 1467 1465 1463 1461 1458 1456 1454 1453 1452 1451 1449 1448 1446 1445 1444 1444 1444 1444 1444 1444 1445 1445 1445 1445 1445 1444 1445 1445 1445 1445 1444 1444 1444 1443
1482 1480 1479 1477 1475 1472 1470 1468 1466 1464 1462 1458 1455 1453 1449 1446 1445 1444 1441 1439 1437 1436 1434 1432 1432 1432 1432 1432 1433 1434 1435 1435 1435 1435 1435 1435 1435 1435 1435 1436 1435 1435 1434
1481 1479 1477 1474 1471 1469 1466 1463 1461 1459 1456 1453 1450 1447 1443 1440 1437 1434 1432 1430 1428 1426 1423 1421 1420 1420 1420 1421 1421 1422 1423 1424 1425 1425 1426 1426 1426 1426 1427 1427 1427 1427 1426
1479 1476 1474 1471 1468 1464 1461 1457 1453 1450 1448 1445 1442 1439 1435 1431 1428 1425 1422 1419 1417 1415 1412 1410 1410 1409 1409 1410 1411 1411 1412 1413 1414 1415 1416 1416 1417 1417 1418 1418 1418 1418 1418
1477 1474 1471 1467 1463 1460 1456 1452 1447 1443 1438 1435 1433 1430 1426 1422 1418 1415 1412 1408 1405 1403 1401 1400 1399 1398 1399 1399 1400 1401 1402 1403 1404 1405 1406 1407 1408 1409 1409 1410 1410 1410 1410
1473 1470 1466 1462 1459 1455 1450 1446 1442 1437 1432 1427 1423 1420 1417 1412 1408 1405 1402 1399 1395 1392 1391 1389 1388 1388 1389 1389 1390 1391 1392 1393 1394 1395 1396 1398 1399 1400 1400 1401 1401 1402 1402
1470 1466 1462 1458 1453 1449 1445 1440 1435 1431 1426 1421 1416 1412 1408 1403 1399 1395 1392 1389 1386 1383 1381 1379 1379 1379 1379 1379 1380 1381 1383 1384 1385 1386 1387 1389 1390 1391 1392 1393 1393 1393 1393
1465 1461 1457 1453 1448 1443 1439 1434 1429 1424 1419 1414 1410 1405 1401 1396 1391 1387 1384 1381 1378 1375 1373 1370 1370 1369 1370 1370 1372 1373 1374 1375 1377 1378 1379 1380 1382 1383 1384 1384 1385 1385 1385
1460 1456 1451 1447 1442 1438 1433 1429 1424 1419 1414 1409 1403 1398 1394 1389 1384 1380 1376 1373 1370 1367 1365 1363 1361 1361 1362 1363 1364 1366 1367 1368 1369 1370 1371 1372 1373 1374 1375 1376 1376 1376 1376
1455 1450 1446 1442 1437 1433 1428 1424 1419 1414 1409 1404 1399 1393 1388 1383 1378 1374 1370 1366 1363 1360 1358 1357 1356 1356 1357 1357 1358 1360 1361 1362 1363 1364 1364 1365 1366 1366 1367 1367 1367 1368 1368
1450 1446 1442 1437 1433 1429 1424 1420 1415 1410 1405 1400 1395 1389 1384 1379 1374 1370 1365 1362 1358 1356 1354 1352 1352 1352 1353 1353 1354 1355 1356 1356 1357 1357 1358 1358 1358 1358 1359 1359 1359 1360 1360
1446 1442 1438 1434 1429 1425 1420 1416 1411 1407 1402 1397 1391 1386 1381 1376 1371 1367 1363 1359 1356 1353 1351 1350 1349 1349 1349 1349 1350 1350 1351 1351 1351 1351 1351 1351 1351 1351 1351 1351 1352 1352 1352
1443 1439 1435 1431 1426 1422 1418 1413 1408 1404 1399 1393 1388 1383 1378 1373 1369 1364 1360 1357 1354 1351 1349 1348 1347 1346 1346 1346 1346 1346 1346 1346 1345 1345 1344 1344 1344 1344 1344 1344 1344 1344 1344